Location: Unspecified
(0.0000°N, 0.0000°E)
Time: 11:56:17
(UTC+00:00)

ITAMSAT 1 - Visible Passes

Search period start: 17 February 2019 00:00
Search period end: 27 February 2019 00:00
Orbit: 784 x 797 km, 98.9° (Epoch: 16 February)

Date Brightness Start Highest point End Pass type
(mag) Time Alt. Az. Time Alt. Az. Time Alt. Az.
17 Feb 8.4 04:03:18 10° NNE 04:08:20 50° ESE 04:13:24 10° S visible
18 Feb 9.8 03:35:02 10° NE 03:39:01 22° ESE 03:43:00 10° SSE visible
18 Feb 8.7 05:14:09 10° NNW 05:18:11 23° WNW 05:22:14 10° SW visible
19 Feb 7.7 04:43:48 10° N 04:48:51 52° WNW 04:53:56 10° SSW visible
20 Feb 7.9 04:14:21 10° NNE 04:19:32 69° ESE 04:24:44 10° S visible
21 Feb 9.4 03:45:42 10° NE 03:50:12 30° ESE 03:54:43 10° SSE visible
21 Feb 9.0 05:26:05 10° NW 05:29:22 17° WNW 05:32:41 10° WSW visible
22 Feb 10.5 03:18:35 10° ENE 03:20:54 13° ESE 03:23:13 10° SE visible
22 Feb 8.1 04:55:15 10° N 05:00:03 38° WNW 05:04:53 10° SW visible
23 Feb 7.5 04:25:30 10° NNE 04:30:43 88° WNW 04:35:58 10° SSW visible
24 Feb 8.8 03:56:32 10° NE 04:01:24 40° ESE 04:06:15 10° S visible
24 Feb 9.3 05:38:30 10° NW 05:40:33 12° WNW 05:42:36 10° W visible
25 Feb 10.1 03:28:38 10° ENE 03:32:05 18° ESE 03:35:31 10° SE visible
25 Feb 8.4 05:06:49 10° NNW 05:11:14 28° WNW 05:15:41 10° SW visible
26 Feb 7.5 04:36:45 10° N 04:41:55 65° WNW 04:47:06 10° SSW visible
